Time,TemperatureF,DewpointF,PressureIn,WindDirection,WindDirectionDegrees,WindSpeedMPH,WindSpeedGustMPH,Humidity,HourlyPrecipIn,Conditions,Clouds,dailyrainin,SolarRadiationWatts/m^2,SoftwareType,DateUTC
2013-09-11 00:05:00,70.0,64.0,30.34,SW,234,3.0,7.0,82,0.00,,,0.00,0.000000,,2013-09-11 04:05:00,
2013-09-11 00:10:00,71.0,66.0,30.33,WSW,251,3.0,8.0,85,0.00,,,0.00,0.000000,,2013-09-11 04:10:00,
2013-09-11 00:44:00,71.0,66.0,30.33,WSW,251,3.0,8.0,85,0.00,,,0.00,0.000000,,2013-09-11 04:44:00,
2013-09-11 00:54:00,71.0,66.0,30.33,WSW,251,3.0,8.0,85,0.00,,,0.00,0.000000,,2013-09-11 04:54:00,
2013-09-11 01:03:00,71.0,66.0,30.33,WSW,251,3.0,8.0,85,0.00,,,0.00,0.000000,,2013-09-11 05:03:00,
2013-09-11 01:10:00,69.0,64.0,30.31,WSW,241,3.0,10.0,84,0.00,,,0.00,0.000000,,2013-09-11 05:10:00,
2013-09-11 01:43:00,69.0,64.0,30.31,WSW,241,3.0,10.0,84,0.00,,,0.00,0.000000,,2013-09-11 05:43:00,
2013-09-11 01:53:00,69.0,64.0,30.31,WSW,241,3.0,10.0,84,0.00,,,0.00,0.000000,,2013-09-11 05:53:00,
2013-09-11 02:02:00,69.0,64.0,30.31,WSW,241,3.0,10.0,84,0.00,,,0.00,0.000000,,2013-09-11 06:02:00,
2013-09-11 02:10:00,70.0,65.0,30.31,SSW,204,3.0,7.0,84,0.00,,,0.00,0.000000,,2013-09-11 06:10:00,
2013-09-11 02:42:00,70.0,65.0,30.31,SSW,204,3.0,7.0,84,0.00,,,0.00,0.000000,,2013-09-11 06:42:00,
2013-09-11 02:52:00,70.0,65.0,30.31,SSW,204,3.0,7.0,84,0.00,,,0.00,0.000000,,2013-09-11 06:52:00,
2013-09-11 03:02:00,70.0,65.0,30.31,SSW,204,3.0,7.0,84,0.00,,,0.00,0.000000,,2013-09-11 07:02:00,
2013-09-11 03:10:00,69.0,65.0,30.30,WSW,246,2.0,5.0,86,0.00,,,0.00,0.000000,,2013-09-11 07:10:00,
2013-09-11 03:42:00,69.0,65.0,30.30,WSW,246,2.0,5.0,86,0.00,,,0.00,0.000000,,2013-09-11 07:42:00,
2013-09-11 03:53:00,69.0,65.0,30.30,WSW,246,2.0,5.0,86,0.00,,,0.00,0.000000,,2013-09-11 07:53:00,
2013-09-11 04:02:00,69.0,65.0,30.30,WSW,246,2.0,5.0,86,0.00,,,0.00,0.000000,,2013-09-11 08:02:00,
2013-09-11 04:10:00,70.0,63.0,30.28,WNW,285,3.0,7.0,79,0.00,,,0.00,0.000000,,2013-09-11 08:10:00,
2013-09-11 04:42:00,70.0,63.0,30.28,WNW,285,3.0,7.0,79,0.00,,,0.00,0.000000,,2013-09-11 08:42:00,
2013-09-11 04:52:00,70.0,63.0,30.28,WNW,285,3.0,7.0,79,0.00,,,0.00,0.000000,,2013-09-11 08:52:00,
2013-09-11 05:02:00,70.0,63.0,30.28,WNW,285,3.0,7.0,79,0.00,,,0.00,0.000000,,2013-09-11 09:02:00,
2013-09-11 05:10:00,70.0,61.0,30.29,WNW,285,2.0,9.0,73,0.00,,,0.00,0.000000,,2013-09-11 09:10:00,
2013-09-11 05:43:00,70.0,61.0,30.29,WNW,285,2.0,9.0,73,0.00,,,0.00,0.000000,,2013-09-11 09:43:00,
2013-09-11 05:53:00,70.0,61.0,30.29,WNW,285,2.0,9.0,73,0.00,,,0.00,0.000000,,2013-09-11 09:53:00,
2013-09-11 06:03:00,70.0,61.0,30.29,WNW,285,2.0,9.0,73,0.00,,,0.00,0.000000,,2013-09-11 10:03:00,
2013-09-11 06:10:00,68.0,61.0,30.30,East,81,4.0,7.0,77,0.00,,,0.00,0.000000,,2013-09-11 10:10:00,
2013-09-11 06:43:00,68.0,61.0,30.30,East,81,4.0,7.0,77,0.00,,,0.00,0.000000,,2013-09-11 10:43:00,
2013-09-11 06:53:00,68.0,61.0,30.30,East,81,4.0,7.0,77,0.00,,,0.00,0.000000,,2013-09-11 10:53:00,
2013-09-11 07:03:00,68.0,61.0,30.30,East,81,4.0,7.0,77,0.00,,,0.00,0.000000,,2013-09-11 11:03:00,
2013-09-11 07:10:00,68.0,61.0,30.31,NNE,20,5.0,8.0,78,0.00,,,-99.99,0.000000,,2013-09-11 11:10:00,
2013-09-11 07:42:00,68.0,61.0,30.31,NNE,20,5.0,8.0,78,0.00,,,-99.99,0.000000,,2013-09-11 11:42:00,
2013-09-11 07:52:00,68.0,61.0,30.31,NNE,20,5.0,8.0,78,0.00,,,-99.99,0.000000,,2013-09-11 11:52:00,
2013-09-11 08:01:00,68.0,61.0,30.31,NNE,20,5.0,8.0,78,0.00,,,-99.99,0.000000,,2013-09-11 12:01:00,
2013-09-11 08:10:00,69.0,62.0,30.32,North,5,3.0,6.0,78,0.00,,,-99.99,0.000000,,2013-09-11 12:10:00,
2013-09-11 08:42:00,69.0,62.0,30.32,North,5,3.0,6.0,78,0.00,,,-99.99,0.000000,,2013-09-11 12:42:00,
2013-09-11 08:52:00,69.0,62.0,30.32,North,5,3.0,6.0,78,0.00,,,-99.99,0.000000,,2013-09-11 12:52:00,
2013-09-11 09:02:00,69.0,62.0,30.32,North,5,3.0,6.0,78,0.00,,,-99.99,0.000000,,2013-09-11 13:02:00,
2013-09-11 09:10:00,72.0,61.0,30.32,NW,313,2.0,4.0,69,0.00,,,0.00,33.000000,,2013-09-11 13:10:00,
2013-09-11 09:42:00,72.0,61.0,30.32,NW,313,2.0,4.0,69,0.00,,,0.00,33.000000,,2013-09-11 13:42:00,
2013-09-11 09:52:00,72.0,61.0,30.32,NW,313,2.0,4.0,69,0.00,,,0.00,33.000000,,2013-09-11 13:52:00,
2013-09-11 10:02:00,72.0,61.0,30.32,NW,313,2.0,4.0,69,0.00,,,0.00,33.000000,,2013-09-11 14:02:00,
2013-09-11 10:10:00,78.0,66.0,30.32,North,4,4.0,6.0,67,0.00,,,0.00,98.000000,,2013-09-11 14:10:00,
2013-09-11 10:42:00,78.0,66.0,30.32,North,4,4.0,6.0,67,0.00,,,0.00,98.000000,,2013-09-11 14:42:00,
2013-09-11 10:52:00,78.0,66.0,30.32,North,4,4.0,6.0,67,0.00,,,0.00,98.000000,,2013-09-11 14:52:00,
2013-09-11 11:02:00,78.0,66.0,30.32,North,4,4.0,6.0,67,0.00,,,0.00,98.000000,,2013-09-11 15:02:00,
2013-09-11 12:10:00,86.0,67.0,30.30,NE,39,3.0,8.0,54,-99.99,,,-99.99,587.000000,,2013-09-11 16:10:00,
2013-09-11 12:53:00,86.0,67.0,30.30,NE,39,3.0,8.0,54,-99.99,,,-99.99,587.000000,,2013-09-11 16:53:00,
2013-09-11 13:03:00,86.0,67.0,30.30,NE,39,3.0,8.0,54,-99.99,,,-99.99,587.000000,,2013-09-11 17:03:00,
2013-09-11 15:10:00,72.0,70.0,30.25,NNE,15,7.0,10.0,92,-99.99,,,0.72,228.000000,,2013-09-11 19:10:00,
2013-09-11 15:42:00,72.0,70.0,30.25,NNE,15,7.0,10.0,92,-99.99,,,0.72,228.000000,,2013-09-11 19:42:00,
2013-09-11 15:53:00,72.0,70.0,30.25,NNE,15,7.0,10.0,92,-99.99,,,0.72,228.000000,,2013-09-11 19:53:00,
2013-09-11 16:02:00,72.0,70.0,30.25,NNE,15,7.0,10.0,92,-99.99,,,0.72,228.000000,,2013-09-11 20:02:00,
2013-09-11 16:10:00,72.0,69.0,30.24,NNE,17,5.0,12.0,89,0.01,,,0.73,327.000000,,2013-09-11 20:10:00,
2013-09-11 16:42:00,72.0,69.0,30.24,NNE,17,5.0,12.0,89,0.01,,,0.73,327.000000,,2013-09-11 20:42:00,
2013-09-11 16:52:00,72.0,69.0,30.24,NNE,17,5.0,12.0,89,0.01,,,0.73,327.000000,,2013-09-11 20:52:00,
2013-09-11 17:02:00,72.0,69.0,30.24,NNE,17,5.0,12.0,89,0.01,,,0.73,327.000000,,2013-09-11 21:02:00,
2013-09-11 17:10:00,73.0,70.0,30.23,SSW,213,4.0,9.0,89,0.00,,,0.73,143.000000,,2013-09-11 21:10:00,
2013-09-11 17:44:00,73.0,70.0,30.23,SSW,213,4.0,9.0,89,0.00,,,0.73,143.000000,,2013-09-11 21:44:00,
2013-09-11 17:54:00,73.0,70.0,30.23,SSW,213,4.0,9.0,89,0.00,,,0.73,143.000000,,2013-09-11 21:54:00,
2013-09-11 18:05:00,73.0,70.0,30.23,SSW,213,4.0,9.0,89,0.00,,,0.73,143.000000,,2013-09-11 22:05:00,
2013-09-11 18:10:00,73.0,69.0,30.24,SSW,199,3.0,7.0,87,0.00,,,0.73,273.000000,,2013-09-11 22:10:00,
2013-09-11 18:43:00,73.0,69.0,30.24,SSW,199,3.0,7.0,87,0.00,,,0.73,273.000000,,2013-09-11 22:43:00,
2013-09-11 18:54:00,73.0,69.0,30.24,SSW,199,3.0,7.0,87,0.00,,,0.73,273.000000,,2013-09-11 22:54:00,
2013-09-11 19:03:00,73.0,69.0,30.24,SSW,199,3.0,7.0,87,0.00,,,0.73,273.000000,,2013-09-11 23:03:00,
2013-09-11 19:10:00,70.0,68.0,30.23,NNE,15,6.0,8.0,94,0.00,,,0.73,272.000000,,2013-09-11 23:10:00,
2013-09-11 19:42:00,70.0,68.0,30.23,NNE,15,6.0,8.0,94,0.00,,,0.73,272.000000,,2013-09-11 23:42:00,
2013-09-11 19:53:00,70.0,68.0,30.23,NNE,15,6.0,8.0,94,0.00,,,0.73,272.000000,,2013-09-11 23:53:00,
2013-09-11 20:01:00,70.0,68.0,30.23,NNE,15,6.0,8.0,94,0.00,,,0.73,272.000000,,2013-09-12 00:01:00,
2013-09-11 20:10:00,70.0,68.0,30.23,SW,225,4.0,8.0,93,0.00,,,0.73,39.000000,,2013-09-12 00:10:00,
2013-09-11 20:42:00,70.0,68.0,30.23,SW,225,4.0,8.0,93,0.00,,,0.73,39.000000,,2013-09-12 00:42:00,
2013-09-11 20:52:00,70.0,68.0,30.23,SW,225,4.0,8.0,93,0.00,,,0.73,39.000000,,2013-09-12 00:52:00,
2013-09-11 21:01:00,70.0,68.0,30.23,SW,225,4.0,8.0,93,0.00,,,0.73,39.000000,,2013-09-12 01:01:00,
2013-09-11 21:10:00,69.0,68.0,30.23,WNW,283,3.0,8.0,95,0.00,,,0.73,2.000000,,2013-09-12 01:10:00,
2013-09-11 21:42:00,69.0,68.0,30.23,WNW,283,3.0,8.0,95,0.00,,,0.73,2.000000,,2013-09-12 01:42:00,
2013-09-11 21:52:00,69.0,68.0,30.23,WNW,283,3.0,8.0,95,0.00,,,0.73,2.000000,,2013-09-12 01:52:00,
2013-09-11 22:03:00,69.0,68.0,30.23,WNW,283,3.0,8.0,95,0.00,,,0.73,2.000000,,2013-09-12 02:03:00,
2013-09-11 22:10:00,70.0,65.0,30.22,NW,312,3.0,7.0,85,0.00,,,0.73,0.000000,,2013-09-12 02:10:00,
2013-09-11 22:52:00,70.0,65.0,30.22,NW,312,3.0,7.0,85,0.00,,,0.73,0.000000,,2013-09-12 02:52:00,
2013-09-11 23:02:00,70.0,65.0,30.22,NW,312,3.0,7.0,85,0.00,,,0.73,0.000000,,2013-09-12 03:02:00,
2013-09-11 23:10:00,70.0,64.0,30.22,North,1,5.0,7.0,81,0.00,,,0.73,0.000000,,2013-09-12 03:10:00,
2013-09-11 23:45:00,70.0,64.0,30.22,North,1,5.0,7.0,81,0.00,,,0.73,0.000000,,2013-09-12 03:45:00,
2013-09-11 23:55:00,70.0,64.0,30.22,North,1,5.0,7.0,81,0.00,,,0.73,0.000000,,2013-09-12 03:55:00,